Location: Garbet
(42.8837°N, 1.2115°E)
Time: 05:52:18
(UTC+00:00)

Cosmos 1953 Rocket - Pass Details

Date: 15 March 2026
Orbit: 599 x 626 km, 82.5° (Epoch: 15 April)

Event Time Altitude Azimuth Distance (km) Brightness Sun altitude
Rises 19:28:02 0° 206° (SSW) 2,831 7.1 -16.6°
Reaches altitude 10° 19:30:21 10° 215° (SW) 1,934 6.4 -17.0°
Maximum altitude 19:34:19 37° 283° (WNW) 938 5.1 -17.7°
Drops below altitude 10° 19:38:20 10° 352° (N) 1,953 6.4 -18.4°
Sets 19:40:42 0° 1° (N) 2,864 7.2 -18.8°
